[[{"header":{"parameterUnit":"m.s-1","parameterCategory":2,"la1":30.2991,"la2":30.254,"lo1":-89.0895,"lo2":-89.0444,"dy":0.0017,"dx":0.0017,"nx":28,"ny":28,"refTime":"2023-11-02T09:00:00:Z","depth":"0","parameterNumber":2,"parameterNumberName":"U-component_of_CURRENTS"},"data":[0,0,0,0,0,0,0,0,0,0,0,0,0,0,0,0,0,0,0,0,0,0,0,0,0,0,0,0,0,0,0,0,0,0,0,0,0,0,0,0,0,0,0,0,0,0,0,0,0,0,0,0,0,0,0,0,0,0,-0.2149,-0.215,0,-0.2209,-0.2209,-0.221,-0.2195,-0.2194,-0.2193,-0.2192,-0.2183,-0.2184,-0.2184,0,0,0,0,0,0,0,0,0,0,0,0,0,-0.1972,-0.1975,-0.2149,-0.215,-0.2151,-0.2209,-0.2209,-0.221,-0.2195,-0.2194,-0.2193,-0.2192,-0.2183,-0.2184,-0.2184,0,0,0,0,0,0,0,0,0,0,0,0,0,-0.2039,-0.1976,-0.2149,-0.2153,-0.2154,-0.2209,-0.2209,-0.221,-0.2195,-0.2194,-0.2192,-0.2191,-0.2183,-0.2184,-0.2184,-0.2216,0,0,-0.2187,-0.2187,0,0,0,0,0,0,0,0,-0.2035,-0.2045,-0.2152,-0.2153,-0.2154,-0.2196,-0.2143,-0.221,-0.2195,-0.2176,-0.2192,-0.2191,-0.2184,-0.2185,-0.2195,-0.2216,-0.2215,-0.2187,-0.2188,-0.2188,-0.2188,0,0,0,0,0,0,0,-0.2031,-0.2042,-0.217,-0.2153,-0.2155,-0.2135,-0.2143,-0.2156,-0.2183,-0.2178,-0.2178,-0.219,-0.2184,-0.2195,-0.2195,-0.2215,-0.2187,-0.2188,-0.2188,-0.2189,-0.2273,-0.2275,0,0,0,0,0,0,-0.2035,-0.2039,-0.2168,-0.2172,-0.2094,-0.2139,-0.2148,-0.2181,-0.2184,-0.2185,-0.2191,-0.2189,-0.2194,-0.2194,-0.2194,-0.2236,-0.2188,-0.2189,-0.2189,-0.2271,-0.2273,-0.2275,0,0,0,0,0,0,-0.2031,-0.2046,-0.2165,-0.2107,-0.2121,-0.2145,-0.2181,-0.2183,-0.2194,-0.2196,-0.2194,-0.2199,-0.2193,-0.2193,-0.2232,-0.2235,-0.2189,-0.219,-0.2269,-0.2272,-0.2274,-0.2317,0,0,0,0,0,0,-0.2026,-0.2045,-0.2064,-0.2108,-0.2125,-0.2209,-0.2183,-0.2185,-0.2205,-0.2203,-0.2203,-0.2201,-0.2192,-0.2231,-0.2233,-0.2236,-0.2191,-0.2267,-0.227,-0.2274,-0.2313,-0.232,-0.2327,0,0,0,0,0,-0.202,-0.2053,-0.2065,-0.208,-0.2153,-0.2211,-0.2218,-0.2226,-0.2206,-0.2226,-0.2235,-0.22,-0.2251,-0.2234,-0.2236,-0.2238,-0.2266,-0.227,-0.2273,-0.231,-0.2319,-0.2327,0,0,0,0,0,0,-0.1981,-0.2056,-0.207,-0.2123,-0.2169,-0.221,-0.2228,-0.2232,-0.2255,-0.2247,-0.2236,-0.2237,-0.227,-0.226,-0.2241,-0.2275,-0.2247,-0.2252,-0.2275,-0.2283,-0.229,-0.229,-0.2191,0,0,0,0,0,-0.1985,-0.2031,-0.2096,-0.2136,-0.2165,-0.2197,-0.2217,-0.2229,-0.2258,-0.2265,-0.2266,-0.2271,-0.2289,-0.2291,-0.2308,-0.2332,-0.2327,-0.2333,-0.2339,-0.2345,-0.2349,-0.2345,-0.2351,-0.2288,-0.2288,-0.2288,0,0,-0.1977,-0.2027,-0.2049,-0.2131,-0.2165,-0.222,-0.2205,-0.2249,-0.2282,-0.2261,-0.2299,-0.2301,-0.2306,-0.2337,-0.2347,-0.2325,-0.2369,-0.235,-0.2354,-0.2355,-0.2349,-0.2355,-0.236,-0.2291,-0.229,-0.229,0,0,-0.1987,-0.2037,-0.2079,-0.2134,-0.22,-0.223,-0.2246,-0.2297,-0.2308,-0.2359,-0.2345,-0.2359,-0.2387,-0.2386,-0.239,-0.2446,-0.2412,-0.2441,-0.2464,-0.246,-0.2464,-0.2468,-0.2499,-0.2505,-0.2434,-0.2434,-0.2434,0,-0.197,-0.2051,-0.2096,-0.216,-0.2209,-0.2239,-0.2298,-0.2325,-0.2374,-0.2391,-0.2378,-0.2417,-0.2411,-0.2441,-0.2455,-0.2458,-0.2461,-0.2428,-0.2466,-0.247,-0.2473,-0.2503,-0.2509,-0.2436,-0.2436,-0.2436,-0.2436,0,-0.2024,-0.2092,-0.2127,-0.2223,-0.2272,-0.2335,-0.239,-0.2423,-0.2436,-0.2457,-0.2494,-0.2493,-0.2507,-0.2503,-0.2496,-0.2512,-0.2513,-0.2481,-0.2439,-0.2481,-0.2512,-0.2517,-0.244,-0.2439,-0.2438,-0.2438,0,0,-0.1983,-0.2135,-0.2147,-0.2212,-0.232,-0.2368,-0.2431,-0.2501,-0.2539,-0.2556,-0.2598,-0.2606,-0.2583,-0.2587,-0.2564,-0.2553,-0.2581,-0.2523,-0.2522,-0.2544,-0.2599,-0.2704,-0.2719,-0.2546,-0.2546,-0.2547,-0.2622,0,-0.2016,-0.2149,-0.2208,-0.2322,-0.2405,-0.2461,-0.252,-0.2575,-0.2613,-0.2659,-0.2642,-0.2672,-0.2621,-0.2621,-0.2604,-0.2583,-0.2593,-0.2565,-0.2564,-0.2565,-0.2643,-0.2728,-0.2561,-0.2623,-0.2627,-0.2628,-0.2628,0,-0.205,-0.2149,-0.2272,-0.2407,-0.2442,-0.2497,-0.2603,-0.2655,-0.2718,-0.2743,-0.2754,-0.2749,-0.2738,-0.2689,-0.2666,-0.2648,-0.2635,-0.2618,-0.2619,-0.2703,-0.268,-0.2577,-0.2632,-0.2467,-0.2636,-0.2636,-0.2635,0,-0.2027,-0.2182,-0.2285,-0.2342,-0.2494,-0.2536,-0.2592,-0.2674,-0.2724,-0.2785,-0.2826,-0.2813,-0.2811,-0.2772,-0.2741,-0.2697,-0.2738,-0.2668,-0.2764,-0.2771,-0.2625,-0.262,-0.2507,-0.2679,-0.2679,-0.2679,-0.2679,0,-0.2053,-0.2136,-0.2283,-0.2355,-0.2456,-0.2539,-0.2624,-0.2686,-0.2764,-0.2839,-0.2847,-0.2903,-0.2827,-0.2844,-0.2791,-0.2822,-0.2777,-0.2803,-0.2805,-0.2644,-0.264,-0.2487,-0.2479,-0.2682,-0.2681,-0.2681,-0.268,0,-0.2021,-0.2122,-0.226,-0.2421,-0.2459,-0.2527,-0.264,-0.2709,-0.2777,-0.2876,-0.2895,-0.2961,-0.3004,-0.2975,-0.2946,-0.2912,-0.2852,-0.294,-0.279,-0.2777,-0.2719,-0.2724,-0.2767,-0.2696,-0.3046,-0.3049,-0.3051,0,-0.2022,-0.2097,-0.229,-0.2366,-0.244,-0.2538,-0.2611,-0.2701,-0.2777,-0.2924,-0.2978,-0.3067,-0.315,-0.3187,-0.3143,-0.3134,-0.2988,-0.2977,-0.2872,-0.2735,-0.2738,-0.2734,-0.2666,-0.2687,-0.2686,-0.2686,-0.2685,0,-0.204,-0.2111,-0.2221,-0.2375,-0.2473,-0.2588,-0.2692,-0.2739,-0.286,-0.2947,-0.309,-0.317,-0.3271,-0.321,-0.3235,-0.3176,-0.2856,-0.2978,-0.2814,-0.2472,-0.2473,-0.2396,-0.2651,-0.2681,-0.2682,-0.2682,-0.2682,-0.2682,-0.2037,-0.2109,-0.2252,-0.2371,-0.2499,-0.2621,-0.2639,-0.2764,-0.286,-0.2933,-0.3098,-0.312,-0.3104,-0.314,-0.3118,-0.2856,-0.2971,-0.2651,-0.2678,-0.2694,-0.26,-0.2924,-0.2983,-0.2985,-0.2987,-0.2989,-0.299,0,-0.2034,-0.2114,-0.224,-0.2382,-0.2478,-0.2567,-0.2681,-0.2658,-0.2716,-0.28,-0.2896,-0.2859,-0.2796,-0.271,-0.2563,-0.2477,-0.2368,-0.2362,-0.2175,-0.2127,-0.2334,-0.2283,-0.2217,-0.2217,-0.2217,-0.2217,-0.2218,-0.2218,-0.2038,-0.2129,-0.2186,-0.231,-0.2399,-0.2447,-0.2472,-0.2455,-0.2448,-0.24,-0.2347,-0.2443,-0.2351,-0.2376,-0.2136,-0.2044,-0.1901,-0.1948,-0.1981,-0.1943,-0.1965,-0.1985,-0.1923,-0.1783,-0.1783,-0.1589,-0.1588,-0.1587]},{"header":{"parameterUnit":"m.s-1","parameterCategory":2,"la1":30.2991,"la2":30.254,"lo1":-89.0895,"lo2":-89.0444,"dy":0.0017,"dx":0.0017,"nx":28,"ny":28,"refTime":"2023-11-02T09:00:00:Z","depth":"0","parameterNumber":3,"parameterNumberName":"V-component_of_CURRENTS"},"data":[0,0,0,0,0,0,0,0,0,0,0,0,0,0,0,0,0,0,0,0,0,0,0,0,0,0,0,0,0,0,0,0,0,0,0,0,0,0,0,0,0,0,0,0,0,0,0,0,0,0,0,0,0,0,0,0,0,0,-0.0817,-0.0817,0,-0.0827,-0.0827,-0.0827,-0.0813,-0.0813,-0.0813,-0.0813,-0.077,-0.0769,-0.0768,0,0,0,0,0,0,0,0,0,0,0,0,0,-0.0678,-0.0681,-0.0817,-0.0817,-0.0818,-0.0827,-0.0827,-0.0827,-0.0813,-0.0813,-0.0813,-0.0812,-0.077,-0.0769,-0.0768,0,0,0,0,0,0,0,0,0,0,0,0,0,-0.0716,-0.0682,-0.0817,-0.0814,-0.0814,-0.0827,-0.0827,-0.0827,-0.0814,-0.0813,-0.0813,-0.0812,-0.0771,-0.0769,-0.0768,-0.0768,0,0,-0.0764,-0.0764,0,0,0,0,0,0,0,0,-0.0714,-0.0721,-0.0814,-0.0814,-0.0814,-0.0821,-0.0763,-0.0806,-0.0814,-0.0811,-0.0813,-0.0812,-0.0784,-0.0782,-0.0782,-0.0766,-0.0764,-0.0764,-0.0763,-0.0763,-0.0762,0,0,0,0,0,0,0,-0.0712,-0.072,-0.0818,-0.0814,-0.0814,-0.0775,-0.0781,-0.077,-0.0797,-0.0811,-0.0811,-0.0816,-0.0783,-0.0783,-0.078,-0.0764,-0.0764,-0.0763,-0.0762,-0.0762,-0.0702,-0.0701,0,0,0,0,0,0,-0.0722,-0.0719,-0.0818,-0.0819,-0.0765,-0.0779,-0.0785,-0.0817,-0.0798,-0.0796,-0.0816,-0.0815,-0.0786,-0.0782,-0.0779,-0.0758,-0.0763,-0.0761,-0.0761,-0.0703,-0.0702,-0.0701,0,0,0,0,0,0,-0.072,-0.0732,-0.0818,-0.0768,-0.0777,-0.0783,-0.0818,-0.0817,-0.0816,-0.0803,-0.0799,-0.0816,-0.0785,-0.0781,-0.0766,-0.0757,-0.0761,-0.076,-0.0704,-0.0702,-0.0701,-0.0729,0,0,0,0,0,0,-0.0716,-0.0732,-0.075,-0.0771,-0.0781,-0.0828,-0.0819,-0.0818,-0.0821,-0.082,-0.0801,-0.0797,-0.0784,-0.0768,-0.0764,-0.0755,-0.0759,-0.0705,-0.0703,-0.0702,-0.0729,-0.0729,-0.0728,0,0,0,0,0,-0.0711,-0.0742,-0.0752,-0.0763,-0.081,-0.0828,-0.0829,-0.0828,-0.0822,-0.0824,-0.0807,-0.0798,-0.0755,-0.0767,-0.0763,-0.0753,-0.0705,-0.0704,-0.0702,-0.0729,-0.0729,-0.0728,0,0,0,0,0,0,-0.0689,-0.0745,-0.0755,-0.0802,-0.0814,-0.0827,-0.0831,-0.0829,-0.082,-0.0815,-0.0797,-0.0792,-0.0773,-0.0757,-0.077,-0.0728,-0.0725,-0.0722,-0.0746,-0.0746,-0.0746,-0.0728,-0.0757,0,0,0,0,0,-0.0696,-0.0735,-0.0769,-0.0801,-0.0814,-0.0821,-0.0826,-0.0827,-0.0825,-0.0821,-0.0809,-0.0786,-0.0763,-0.0752,-0.0733,-0.0718,-0.0688,-0.0703,-0.0703,-0.0703,-0.0684,-0.0634,-0.0628,-0.0695,-0.0695,-0.0695,0,0,-0.0691,-0.073,-0.0747,-0.0798,-0.0809,-0.0823,-0.0822,-0.0835,-0.083,-0.0817,-0.0805,-0.079,-0.0759,-0.0739,-0.0728,-0.0725,-0.0672,-0.0701,-0.0702,-0.0682,-0.0632,-0.0625,-0.0619,-0.0694,-0.0694,-0.0694,0,0,-0.07,-0.0741,-0.0773,-0.0788,-0.0815,-0.0821,-0.0826,-0.0842,-0.0833,-0.0827,-0.0807,-0.0781,-0.0764,-0.073,-0.0711,-0.0695,-0.0675,-0.0695,-0.068,-0.0633,-0.0627,-0.0621,-0.0596,-0.0587,-0.0693,-0.0693,-0.0693,0,-0.0694,-0.0746,-0.0777,-0.0805,-0.0815,-0.0822,-0.0837,-0.083,-0.0832,-0.0819,-0.0823,-0.077,-0.075,-0.0702,-0.0695,-0.0693,-0.0674,-0.069,-0.0633,-0.0627,-0.0621,-0.0595,-0.0586,-0.0694,-0.0694,-0.0694,-0.0694,0,-0.0721,-0.0758,-0.0775,-0.0817,-0.0825,-0.0842,-0.0843,-0.0838,-0.0832,-0.0821,-0.0784,-0.0755,-0.0719,-0.071,-0.0699,-0.0643,-0.0648,-0.0644,-0.0638,-0.0616,-0.0591,-0.058,-0.0696,-0.0695,-0.0695,-0.0695,0,0,-0.0738,-0.0787,-0.0794,-0.0814,-0.0836,-0.0851,-0.0834,-0.0828,-0.0818,-0.0795,-0.077,-0.0719,-0.0704,-0.0678,-0.0658,-0.0613,-0.0564,-0.0613,-0.061,-0.0594,-0.0477,-0.0418,-0.0402,-0.0559,-0.0557,-0.0555,-0.0485,0,-0.0754,-0.0809,-0.082,-0.0847,-0.0876,-0.0866,-0.0852,-0.0836,-0.0822,-0.0799,-0.074,-0.0713,-0.069,-0.068,-0.0627,-0.0587,-0.0535,-0.0584,-0.0493,-0.049,-0.0446,-0.0386,-0.0313,-0.0238,-0.0475,-0.0473,-0.0472,0,-0.0784,-0.0822,-0.0859,-0.0881,-0.0889,-0.0891,-0.0881,-0.0872,-0.0824,-0.0806,-0.0754,-0.0722,-0.0647,-0.0637,-0.0524,-0.0563,-0.0509,-0.0472,-0.0469,-0.0389,-0.041,-0.0292,-0.021,-0.0035,-0.0456,-0.0457,-0.0458,0,-0.0803,-0.0847,-0.0879,-0.0889,-0.091,-0.0906,-0.0904,-0.0874,-0.0872,-0.081,-0.0803,-0.0708,-0.0678,-0.0582,-0.0503,-0.0514,-0.0388,-0.0395,-0.0284,-0.0282,-0.0183,-0.0174,0.0082,-0.0288,-0.0289,-0.0289,-0.0289,0,-0.083,-0.0857,-0.0892,-0.0915,-0.0941,-0.0935,-0.0948,-0.0924,-0.0896,-0.0907,-0.0812,-0.0801,-0.0663,-0.0586,-0.0498,-0.0357,-0.0378,-0.0252,-0.024,-0.0193,-0.0186,-0.0001,0.0044,-0.0286,-0.0287,-0.0287,-0.0288,0,-0.0851,-0.0871,-0.0924,-0.0954,-0.0959,-0.0984,-0.0997,-0.102,-0.0966,-0.0977,-0.0958,-0.0865,-0.0756,-0.0615,-0.047,-0.0358,-0.0116,-0.0175,-0.0136,-0.0118,0.017,0.0207,0.0457,0.0534,-0.002,-0.0018,-0.0016,0,-0.0869,-0.0898,-0.0966,-0.1008,-0.1025,-0.1057,-0.1092,-0.1061,-0.109,-0.1038,-0.1056,-0.0933,-0.0878,-0.0614,-0.0355,-0.0135,-0.0041,0.0053,0.0076,0.0237,0.0286,0.0312,0.0358,0.0178,0.0181,0.0184,0.0186,0,-0.0909,-0.0936,-0.0988,-0.1089,-0.1143,-0.1205,-0.1244,-0.1268,-0.1251,-0.125,-0.125,-0.1189,-0.0861,-0.055,-0.0193,-0.0065,0.0206,0.0116,0.0288,0.0491,0.0532,0.0592,0.0054,0.021,0.0207,0.0205,0.0204,0.0203,-0.0942,-0.0997,-0.1086,-0.1178,-0.1269,-0.1374,-0.1436,-0.1483,-0.1539,-0.1542,-0.1433,-0.1276,-0.0698,-0.0168,0.0006,0.0496,0.0404,0.0615,0.065,0.0664,0.0759,0.0271,0.0436,0.0435,0.0434,0.0433,0.0433,0,-0.0991,-0.1062,-0.1169,-0.1309,-0.1458,-0.1469,-0.1568,-0.1633,-0.1743,-0.1613,-0.1587,-0.0943,-0.0424,0.0129,0.0827,0.1039,0.1067,0.1112,0.1184,0.1205,0.08,0.0833,0.1086,0.1086,0.1086,0.1086,0.1085,0.1085,-0.1019,-0.1129,-0.1201,-0.1461,-0.1573,-0.1766,-0.1837,-0.1906,-0.1819,-0.1603,-0.1228,-0.0915,-0.0075,0.0936,0.1509,0.153,0.1673,0.1653,0.17,0.1446,0.1402,0.1361,0.1409,0.1778,0.1779,0.2117,0.212,0.2123]}],[{"header":{"parameterUnit":"m.s-1","parameterCategory":2,"la1":30.2991,"la2":30.254,"lo1":-89.0895,"lo2":-89.0444,"dy":0.0017,"dx":0.0017,"nx":28,"ny":28,"refTime":"2023-11-02T09:00:00:Z","depth":"2","parameterNumber":2,"parameterNumberName":"U-component_of_CURRENTS"},"data":[0,0,0,0,0,0,0,0,0,0,0,0,0,0,0,0,0,0,0,0,0,0,0,0,0,0,0,0,0,0,0,0,0,0,0,0,0,0,0,0,0,0,0,0,0,0,0,0,0,0,0,0,0,0,0,0,0,0,-0.0844,-0.0844,0,-0.086,-0.0861,-0.0861,-0.0883,-0.0883,-0.0883,-0.0884,-0.0912,-0.0912,-0.0913,0,0,0,0,0,0,0,0,0,0,0,0,0,-0.0866,-0.0865,-0.0844,-0.0844,-0.0844,-0.086,-0.0861,-0.0861,-0.0883,-0.0883,-0.0883,-0.0884,-0.0912,-0.0912,-0.0913,0,0,0,0,0,0,0,0,0,0,0,0,0,-0.0867,-0.0865,-0.0844,-0.0856,-0.0857,-0.086,-0.0861,-0.0861,-0.0883,-0.0883,-0.0884,-0.0884,-0.0911,-0.0912,-0.0913,-0.0909,0,0,-0.0915,-0.0915,0,0,0,0,0,0,0,0,-0.0867,-0.0867,-0.0854,-0.0855,-0.0857,-0.0869,-0.0879,-0.0877,-0.0883,-0.0874,-0.0884,-0.0884,-0.0898,-0.09,-0.0903,-0.091,-0.0912,-0.0915,-0.0916,-0.0916,-0.0916,0,0,0,0,0,0,0,-0.0867,-0.0866,-0.0851,-0.0854,-0.0856,-0.0873,-0.0873,-0.0879,-0.0884,-0.0875,-0.0876,-0.0877,-0.0899,-0.0902,-0.0904,-0.0912,-0.0915,-0.0916,-0.0916,-0.0917,-0.0901,-0.0901,0,0,0,0,0,0,-0.0861,-0.0866,-0.0851,-0.0852,-0.0862,-0.0872,-0.0873,-0.0865,-0.0884,-0.0887,-0.0876,-0.0877,-0.0901,-0.0903,-0.0905,-0.0911,-0.0916,-0.0917,-0.0917,-0.0902,-0.0901,-0.09,0,0,0,0,0,0,-0.0861,-0.0859,-0.085,-0.0859,-0.0859,-0.0871,-0.0863,-0.0865,-0.0872,-0.0885,-0.0888,-0.088,-0.0901,-0.0904,-0.0904,-0.0912,-0.0917,-0.0918,-0.0903,-0.0902,-0.0901,-0.0917,0,0,0,0,0,0,-0.0862,-0.0859,-0.0863,-0.0858,-0.0858,-0.0859,-0.0862,-0.0865,-0.0871,-0.0873,-0.0889,-0.0892,-0.0902,-0.0903,-0.0905,-0.0913,-0.0918,-0.0904,-0.0903,-0.0901,-0.0917,-0.0916,-0.0915,0,0,0,0,0,-0.0862,-0.0871,-0.0863,-0.0862,-0.086,-0.0859,-0.0861,-0.0872,-0.087,-0.0878,-0.0877,-0.0891,-0.0894,-0.0903,-0.0906,-0.0914,-0.0905,-0.0903,-0.0901,-0.0918,-0.0916,-0.0915,0,0,0,0,0,0,-0.0892,-0.0874,-0.0865,-0.087,-0.0864,-0.0863,-0.0878,-0.087,-0.0875,-0.0881,-0.0884,-0.0887,-0.0886,-0.089,-0.09,-0.09,-0.0901,-0.0899,-0.0912,-0.0911,-0.091,-0.0984,-0.0919,0,0,0,0,0,-0.0896,-0.0893,-0.0877,-0.0882,-0.088,-0.0874,-0.0878,-0.0878,-0.0877,-0.0881,-0.0891,-0.089,-0.0879,-0.0888,-0.0885,-0.0892,-0.0939,-0.0895,-0.0894,-0.0893,-0.0952,-0.0985,-0.0994,-0.0894,-0.0894,-0.0894,0,0,-0.0905,-0.0899,-0.0896,-0.0888,-0.0887,-0.091,-0.0879,-0.0886,-0.0905,-0.0882,-0.0917,-0.0888,-0.0875,-0.0879,-0.088,-0.0888,-0.0944,-0.0891,-0.089,-0.0951,-0.0984,-0.0995,-0.1004,-0.0893,-0.0893,-0.0893,0,0,-0.0938,-0.0919,-0.0935,-0.0938,-0.0938,-0.0935,-0.0935,-0.0932,-0.093,-0.0932,-0.0918,-0.0906,-0.0893,-0.0902,-0.0896,-0.089,-0.0929,-0.0864,-0.0936,-0.0965,-0.0975,-0.0985,-0.1062,-0.1078,-0.0874,-0.0874,-0.0874,0,-0.0949,-0.0971,-0.0941,-0.097,-0.0994,-0.095,-0.0991,-0.0978,-0.0977,-0.0978,-0.0948,-0.0933,-0.0917,-0.0934,-0.0929,-0.0896,-0.0931,-0.0941,-0.0969,-0.0979,-0.0989,-0.1066,-0.1084,-0.0874,-0.0874,-0.0874,-0.0874,0,-0.1002,-0.1026,-0.1039,-0.1062,-0.1084,-0.1101,-0.109,-0.109,-0.1065,-0.1051,-0.1041,-0.1007,-0.101,-0.0975,-0.0954,-0.1001,-0.101,-0.0956,-0.0984,-0.1001,-0.1079,-0.1098,-0.0875,-0.0875,-0.0875,-0.0874,0,0,-0.0997,-0.106,-0.1065,-0.1105,-0.1135,-0.1153,-0.1182,-0.1189,-0.1183,-0.1165,-0.118,-0.1146,-0.1118,-0.1113,-0.1071,-0.1098,-0.1177,-0.1067,-0.1068,-0.1169,-0.1285,-0.1438,-0.1473,-0.1117,-0.112,-0.1122,-0.1316,0,-0.1043,-0.1116,-0.115,-0.1234,-0.1271,-0.1274,-0.1308,-0.1311,-0.126,-0.1253,-0.1219,-0.1205,-0.1168,-0.1149,-0.1177,-0.1161,-0.1226,-0.1134,-0.1236,-0.1242,-0.1394,-0.1499,-0.1163,-0.132,-0.1334,-0.1337,-0.134,0,-0.1076,-0.113,-0.1222,-0.1316,-0.1335,-0.1395,-0.1422,-0.1447,-0.1417,-0.1371,-0.136,-0.1305,-0.1356,-0.1288,-0.1376,-0.1314,-0.1337,-0.1332,-0.1337,-0.1506,-0.1431,-0.1302,-0.1354,-0.1371,-0.1369,-0.1366,-0.1364,0,-0.1065,-0.1176,-0.1255,-0.1288,-0.1385,-0.1444,-0.1503,-0.1493,-0.1489,-0.1463,-0.1434,-0.1452,-0.1481,-0.1497,-0.1523,-0.1439,-0.163,-0.1495,-0.1677,-0.1687,-0.1446,-0.1433,-0.16,-0.16,-0.16,-0.1599,-0.1599,0,-0.1075,-0.1138,-0.1265,-0.1303,-0.1409,-0.1491,-0.1554,-0.1562,-0.1573,-0.159,-0.1524,-0.1557,-0.1534,-0.1609,-0.1599,-0.1764,-0.1711,-0.1771,-0.1772,-0.1444,-0.143,-0.1494,-0.1479,-0.1606,-0.1605,-0.1603,-0.1602,0,-0.1043,-0.1105,-0.1212,-0.1354,-0.1402,-0.1491,-0.1611,-0.1608,-0.1638,-0.166,-0.1669,-0.1687,-0.1843,-0.1852,-0.1929,-0.1915,-0.1995,-0.2064,-0.1735,-0.1699,-0.2004,-0.1986,-0.2268,-0.2275,-0.2281,-0.2287,-0.2291,0,-0.1025,-0.1079,-0.1244,-0.1299,-0.1378,-0.1508,-0.1551,-0.1623,-0.1625,-0.1759,-0.177,-0.1945,-0.2081,-0.2299,-0.221,-0.2283,-0.2302,-0.21,-0.1901,-0.2114,-0.2083,-0.2056,-0.2031,-0.1552,-0.155,-0.1548,-0.1547,0,-0.1033,-0.1102,-0.1188,-0.1314,-0.1393,-0.1465,-0.1569,-0.1578,-0.1679,-0.1755,-0.197,-0.2134,-0.2299,-0.2262,-0.2362,-0.2322,-0.2049,-0.2087,-0.2361,-0.149,-0.1469,-0.143,-0.1422,-0.1533,-0.1534,-0.1535,-0.1536,-0.1536,-0.1038,-0.1121,-0.1253,-0.135,-0.1415,-0.1463,-0.1488,-0.1603,-0.1716,-0.1834,-0.2052,-0.2201,-0.2157,-0.2178,-0.2141,-0.2028,-0.2155,-0.1983,-0.1972,-0.1966,-0.1904,-0.1902,-0.2035,-0.2039,-0.2043,-0.2046,-0.2049,0,-0.1091,-0.1191,-0.1283,-0.1391,-0.1411,-0.1477,-0.1505,-0.153,-0.1683,-0.1794,-0.2017,-0.1853,-0.1875,-0.1883,-0.1635,-0.1655,-0.1433,-0.1649,-0.1274,-0.129,-0.1305,-0.1193,-0.1145,-0.1143,-0.1141,-0.114,0,0,-0.1134,-0.1254,-0.1309,-0.1378,-0.1427,-0.1451,-0.1444,-0.1501,-0.1542,-0.1636,-0.1645,-0.1791,-0.1804,-0.1439,-0.1362,-0.1243,-0.1252,-0.1183,-0.1886,-0.1456,-0.1469,-0.1466,-0.1316,0,0,0,0,0]},{"header":{"parameterUnit":"m.s-1","parameterCategory":2,"la1":30.2991,"la2":30.254,"lo1":-89.0895,"lo2":-89.0444,"dy":0.0017,"dx":0.0017,"nx":28,"ny":28,"refTime":"2023-11-02T09:00:00:Z","depth":"2","parameterNumber":3,"parameterNumberName":"V-component_of_CURRENTS"},"data":[0,0,0,0,0,0,0,0,0,0,0,0,0,0,0,0,0,0,0,0,0,0,0,0,0,0,0,0,0,0,0,0,0,0,0,0,0,0,0,0,0,0,0,0,0,0,0,0,0,0,0,0,0,0,0,0,0,0,0.0199,0.02,0,0.0301,0.0302,0.0303,0.0305,0.0303,0.0302,0.0301,0.0346,0.0348,0.035,0,0,0,0,0,0,0,0,0,0,0,0,0,0.0147,0.0147,0.0199,0.02,0.0201,0.0301,0.0302,0.0303,0.0305,0.0303,0.0302,0.0301,0.0345,0.0348,0.035,0,0,0,0,0,0,0,0,0,0,0,0,0,0.02,0.0147,0.0199,0.0215,0.0217,0.03,0.0302,0.0304,0.0305,0.0303,0.0302,0.03,0.0344,0.0347,0.0351,0.0408,0,0,0.0361,0.0363,0,0,0,0,0,0,0,0,0.0197,0.0202,0.0211,0.0214,0.0217,0.0289,0.03,0.0336,0.0306,0.0271,0.0301,0.0299,0.0323,0.0328,0.0351,0.041,0.0412,0.0362,0.0364,0.0365,0.0366,0,0,0,0,0,0,0,0.0193,0.0198,0.0238,0.0213,0.0216,0.0266,0.027,0.0308,0.0304,0.0274,0.0274,0.0288,0.0324,0.0348,0.0352,0.0413,0.0362,0.0365,0.0367,0.0368,0.0401,0.04,0,0,0,0,0,0,0.0177,0.0194,0.0235,0.0241,0.0203,0.0268,0.0272,0.0267,0.0305,0.031,0.0289,0.0287,0.0343,0.0348,0.0353,0.0309,0.0365,0.0368,0.037,0.0403,0.0401,0.04,0,0,0,0,0,0,0.0175,0.0179,0.0231,0.0222,0.0232,0.0269,0.0264,0.027,0.0251,0.0318,0.0321,0.0259,0.0342,0.0349,0.0353,0.0315,0.037,0.0373,0.0404,0.0402,0.04,0.0294,0,0,0,0,0,0,0.0173,0.0177,0.0141,0.022,0.0232,0.0245,0.0266,0.0273,0.0265,0.0262,0.0294,0.0299,0.0341,0.0348,0.0356,0.0321,0.0376,0.0405,0.0403,0.0401,0.0299,0.0288,0.028,0,0,0,0,0,0.017,0.0127,0.0138,0.0142,0.0189,0.0244,0.0253,0.0276,0.0264,0.0251,0.0272,0.0295,0.0339,0.035,0.0361,0.0325,0.0407,0.0404,0.0401,0.0303,0.029,0.028,0,0,0,0,0,0,0.0088,0.0127,0.0139,0.0109,0.0159,0.0243,0.0219,0.025,0.0259,0.0232,0.0293,0.03,0.0293,0.0324,0.0335,0.0327,0.0372,0.0371,0.0293,0.0282,0.0273,0.0263,0.0379,0,0,0,0,0,0.0056,0.0024,0.0097,0.007,0.0081,0.0144,0.0156,0.0179,0.0216,0.0215,0.024,0.0263,0.0301,0.0299,0.0336,0.0333,0.0369,0.0313,0.0303,0.0295,0.0293,0.0313,0.0305,0.0391,0.0391,0.0391,0,0,0.0026,0.0033,0.0022,0.0049,0.0077,0.0079,0.0143,0.0144,0.0147,0.022,0.019,0.0234,0.0296,0.0296,0.0293,0.0308,0.0288,0.0292,0.0284,0.0287,0.0309,0.0301,0.0294,0.0389,0.039,0.039,0,0,-0.0036,-0.0054,-0.009,-0.007,-0.0043,-0.0004,-0.0015,0.0041,0.0055,0.007,0.0116,0.0131,0.0176,0.0212,0.0242,0.02,0.0246,0.0199,0.0132,0.015,0.0143,0.0138,0.0167,0.0165,0.0183,0.0182,0.0182,0,-0.0072,-0.0112,-0.0087,-0.0114,-0.0116,-0.0055,-0.0078,-0.0042,0.0007,0.0032,0.0033,0.0111,0.0141,0.0177,0.0153,0.0177,0.0201,0.017,0.0137,0.0133,0.0129,0.016,0.0159,0.0177,0.0178,0.0178,0.0179,0,-0.0142,-0.0183,-0.0209,-0.0233,-0.0234,-0.0246,-0.0192,-0.0186,-0.0166,-0.0108,-0.0072,-0.0012,0.0041,0.0041,0.0084,0.0074,0.0104,0.0131,0.0164,0.0113,0.015,0.0151,0.0169,0.0171,0.0173,0.0174,0,0,-0.0173,-0.024,-0.025,-0.0282,-0.0302,-0.0294,-0.031,-0.0263,-0.0242,-0.0208,-0.0172,-0.0127,-0.008,-0.0044,0.0007,0.0006,-0.0014,0.0038,0.0041,0.0062,0.003,0.012,0.013,0.0002,0.0002,0.0001,0.0065,0,-0.0224,-0.0309,-0.0327,-0.0399,-0.0436,-0.0407,-0.0413,-0.0375,-0.0315,-0.0267,-0.0192,-0.0145,-0.0113,-0.0089,-0.0084,-0.0017,-0.0015,-0.0032,0.008,0.0084,0.0166,0.0133,0.0111,0.0172,0.0066,0.0066,0.0067,0,-0.0267,-0.0331,-0.042,-0.0474,-0.0485,-0.0516,-0.0502,-0.0493,-0.0403,-0.0351,-0.0289,-0.0208,-0.0177,-0.015,-0.0081,-0.0095,-0.005,-0.0009,-0.0005,0.012,0.0176,0.0207,0.0179,0.0069,0.0069,0.0069,0.0068,0,-0.0296,-0.0378,-0.0461,-0.0487,-0.0544,-0.0562,-0.0578,-0.0521,-0.0499,-0.0404,-0.0369,-0.0283,-0.0255,-0.0188,-0.0097,-0.0095,-0.002,0.0005,0.0132,0.014,0.0167,0.0179,0.0039,0.0039,0.0039,0.0039,0.0038,0,-0.0333,-0.0392,-0.0479,-0.0529,-0.0597,-0.062,-0.0645,-0.0608,-0.0565,-0.0549,-0.0426,-0.0391,-0.0273,-0.0195,-0.0112,0.0019,-0.0027,0.0122,0.016,0.0131,0.0138,0.0088,0.0093,0.0041,0.0041,0.004,0.004,0,-0.0359,-0.0405,-0.0509,-0.06,-0.062,-0.0678,-0.0722,-0.0719,-0.0665,-0.064,-0.0622,-0.0494,-0.0393,-0.0244,-0.0129,-0.0001,0.0119,0.0172,0.0141,0.0175,0.0272,0.027,0.0334,0.0337,0.034,0.0343,0.0345,0,-0.0374,-0.0446,-0.0583,-0.064,-0.069,-0.0763,-0.0801,-0.0778,-0.0776,-0.0707,-0.0702,-0.0584,-0.0497,-0.025,-0.001,0.0201,0.0158,0.0319,0.0332,0.027,0.0301,0.0294,0.0289,0.0315,0.0317,0.0319,0.032,0,-0.0447,-0.0513,-0.0607,-0.0737,-0.0803,-0.087,-0.0921,-0.0928,-0.09,-0.0878,-0.0853,-0.0783,-0.0489,-0.0236,0.0103,0.0218,0.0298,0.0361,0.0285,0.0261,0.0263,0.029,0.0283,0.0333,0.0331,0.033,0.033,0.0329,-0.0504,-0.0596,-0.0732,-0.0839,-0.0919,-0.099,-0.1042,-0.1074,-0.1101,-0.1057,-0.0966,-0.0811,-0.0485,0.0009,0.0216,0.0434,0.0429,0.0486,0.0477,0.0467,0.047,0.048,0.059,0.059,0.059,0.0591,0.0591,0,-0.0592,-0.0702,-0.0821,-0.0953,-0.1052,-0.108,-0.1134,-0.1191,-0.1254,-0.1109,-0.1059,-0.0672,-0.0321,-0.0016,0.0364,0.0599,0.0551,0.0603,0.0493,0.0481,0.047,0.0468,0.0591,0.0591,0.0591,0.0592,0,0,-0.065,-0.0792,-0.0863,-0.1045,-0.1147,-0.1292,-0.1333,-0.1389,-0.1313,-0.1213,-0.1007,-0.0691,-0.0276,0.0013,0.0272,0.0426,0.0382,0.043,0.0411,0.0238,0.0223,0.0393,0.0377,0,0,0,0,0]}],[{"header":{"parameterUnit":"m.s-1","parameterCategory":2,"la1":30.2991,"la2":30.254,"lo1":-89.0895,"lo2":-89.0444,"dy":0.0017,"dx":0.0017,"nx":28,"ny":28,"refTime":"2023-11-02T09:00:00:Z","depth":"4","parameterNumber":2,"parameterNumberName":"U-component_of_CURRENTS"},"data":[0,0,0,0,0,0,0,0,0,0,0,0,0,0,0,0,0,0,0,0,0,0,0,0,0,0,0,0,0,0,0,0,0,0,0,0,0,0,0,0,0,0,0,0,0,0,0,0,0,0,0,0,0,0,0,0,0,0,-0.0852,-0.0852,0,-0.0883,-0.0883,-0.0883,-0.0908,-0.0909,-0.0909,-0.0909,-0.0946,-0.0947,-0.0947,0,0,0,0,0,0,0,0,0,0,0,0,0,-0.0814,-0.0814,-0.0852,-0.0852,-0.0853,-0.0883,-0.0883,-0.0883,-0.0908,-0.0909,-0.0909,-0.0909,-0.0946,-0.0947,-0.0947,0,0,0,0,0,0,0,0,0,0,0,0,0,-0.0834,-0.0814,-0.0852,-0.087,-0.0872,-0.0883,-0.0883,-0.0884,-0.0908,-0.0909,-0.0909,-0.091,-0.0946,-0.0947,-0.0947,-0.0941,0,0,-0.095,-0.0951,0,0,0,0,0,0,0,0,-0.0833,-0.0835,-0.0867,-0.0869,-0.0871,-0.0894,-0.0883,-0.0904,-0.0908,-0.0893,-0.0909,-0.091,-0.093,-0.0932,-0.0934,-0.0943,-0.0944,-0.095,-0.0951,-0.0951,-0.0951,0,0,0,0,0,0,0,-0.0832,-0.0834,-0.0862,-0.0867,-0.087,-0.0877,-0.088,-0.0887,-0.0906,-0.0894,-0.0896,-0.0902,-0.0931,-0.0933,-0.0935,-0.0945,-0.095,-0.0951,-0.0952,-0.0952,-0.0993,-0.0993,0,0,0,0,0,0,-0.0831,-0.0833,-0.0861,-0.0864,-0.0855,-0.0877,-0.0881,-0.0885,-0.0906,-0.091,-0.0902,-0.0903,-0.0931,-0.0934,-0.0937,-0.0982,-0.0951,-0.0952,-0.0953,-0.0992,-0.0993,-0.0993,0,0,0,0,0,0,-0.083,-0.0833,-0.086,-0.085,-0.0855,-0.0877,-0.0881,-0.0885,-0.0901,-0.0912,-0.0916,-0.0916,-0.0932,-0.0935,-0.0955,-0.0981,-0.0952,-0.0953,-0.0992,-0.0992,-0.0993,-0.1039,0,0,0,0,0,0,-0.0828,-0.0832,-0.0837,-0.085,-0.0855,-0.0876,-0.0881,-0.0885,-0.0904,-0.0906,-0.0925,-0.0928,-0.0933,-0.0954,-0.0956,-0.0982,-0.0954,-0.0991,-0.0992,-0.0993,-0.1037,-0.1041,-0.1045,0,0,0,0,0,-0.0827,-0.0831,-0.0837,-0.0841,-0.086,-0.0876,-0.0879,-0.0896,-0.0904,-0.0912,-0.0926,-0.0929,-0.0962,-0.0955,-0.0957,-0.0985,-0.099,-0.0992,-0.0993,-0.1035,-0.1041,-0.1045,0,0,0,0,0,0,-0.082,-0.0834,-0.0841,-0.0851,-0.0867,-0.0881,-0.0891,-0.0902,-0.0919,-0.0924,-0.0934,-0.0938,-0.0963,-0.0963,-0.0955,-0.0997,-0.0977,-0.0979,-0.1008,-0.1014,-0.1018,-0.1016,-0.0955,0,0,0,0,0,-0.0819,-0.0827,-0.0843,-0.0853,-0.086,-0.0877,-0.0887,-0.0899,-0.0915,-0.0923,-0.0937,-0.0951,-0.0967,-0.0982,-0.0988,-0.1013,-0.1014,-0.1031,-0.1036,-0.1039,-0.1039,-0.1074,-0.1082,-0.0997,-0.0997,-0.0997,0,0,-0.0823,-0.083,-0.0837,-0.0852,-0.0864,-0.0871,-0.0884,-0.0903,-0.0914,-0.0924,-0.0945,-0.0962,-0.0974,-0.1001,-0.1014,-0.1009,-0.106,-0.1041,-0.1044,-0.1041,-0.1076,-0.1084,-0.1092,-0.0998,-0.0998,-0.0998,0,0,-0.0821,-0.0836,-0.0837,-0.0847,-0.0866,-0.0877,-0.0885,-0.0906,-0.0923,-0.0942,-0.0957,-0.0992,-0.1006,-0.1033,-0.1044,-0.1073,-0.1075,-0.1078,-0.1109,-0.1144,-0.1151,-0.1158,-0.1158,-0.1165,-0.1089,-0.1089,-0.1089,0,-0.0824,-0.0821,-0.0842,-0.0841,-0.0848,-0.088,-0.0881,-0.0902,-0.0929,-0.0955,-0.0951,-0.1007,-0.102,-0.1072,-0.1086,-0.1085,-0.1093,-0.1093,-0.1151,-0.1157,-0.1164,-0.1162,-0.1169,-0.1091,-0.1091,-0.109,-0.109,0,-0.0817,-0.0816,-0.0818,-0.0825,-0.0841,-0.0848,-0.0878,-0.0905,-0.0928,-0.0959,-0.1013,-0.1038,-0.1084,-0.1093,-0.1099,-0.1159,-0.1145,-0.1147,-0.1141,-0.1175,-0.1171,-0.1177,-0.1094,-0.1093,-0.1093,-0.1092,0,0,-0.0812,-0.0811,-0.0812,-0.0804,-0.083,-0.0839,-0.0872,-0.0914,-0.0953,-0.099,-0.1047,-0.1085,-0.113,-0.1145,-0.1173,-0.1201,-0.125,-0.1199,-0.12,-0.1203,-0.1309,-0.1209,-0.1205,-0.1272,-0.1274,-0.1275,-0.1285,0,-0.0795,-0.0778,-0.0792,-0.0787,-0.0777,-0.082,-0.0852,-0.0904,-0.0954,-0.1022,-0.1082,-0.1146,-0.1143,-0.1189,-0.122,-0.1246,-0.127,-0.1245,-0.1271,-0.1271,-0.1182,-0.121,-0.128,-0.1289,-0.1291,-0.1292,-0.1292,0,-0.0777,-0.0762,-0.0744,-0.0758,-0.0765,-0.0776,-0.0841,-0.0885,-0.0996,-0.1053,-0.114,-0.1191,-0.1269,-0.1258,-0.1314,-0.1303,-0.1311,-0.1314,-0.1315,-0.1209,-0.1182,-0.125,-0.1303,-0.1302,-0.1301,-0.13,-0.13,0,-0.0741,-0.0733,-0.0713,-0.0713,-0.0738,-0.0754,-0.0797,-0.0893,-0.0955,-0.1097,-0.117,-0.1252,-0.1321,-0.1341,-0.1347,-0.1351,-0.1378,-0.1388,-0.1297,-0.1289,-0.1357,-0.135,-0.1422,-0.1422,-0.1422,-0.1421,-0.1421,0,-0.0705,-0.0692,-0.0691,-0.0673,-0.0678,-0.073,-0.0797,-0.0855,-0.0984,-0.1063,-0.12,-0.1253,-0.1349,-0.1374,-0.1365,-0.1332,-0.1398,-0.1298,-0.129,-0.1372,-0.1367,-0.136,-0.1353,-0.1422,-0.1422,-0.1422,-0.1422,0,-0.0661,-0.0662,-0.0629,-0.0638,-0.065,-0.0661,-0.0781,-0.0844,-0.0983,-0.109,-0.1146,-0.1279,-0.1316,-0.1358,-0.1385,-0.1353,-0.1329,-0.1298,-0.1358,-0.1353,-0.1214,-0.1209,-0.1219,-0.1216,-0.1213,-0.121,-0.1208,0,-0.0636,-0.0608,-0.0587,-0.0579,-0.0577,-0.0634,-0.069,-0.0827,-0.0876,-0.1065,-0.1076,-0.1194,-0.1265,-0.1223,-0.1271,-0.1258,-0.1244,-0.1239,-0.125,-0.1205,-0.1197,-0.1196,-0.1195,-0.1204,-0.1203,-0.1202,-0.1202,0,-0.057,-0.0558,-0.0526,-0.0506,-0.0526,-0.0583,-0.064,-0.0656,-0.0816,-0.0964,-0.1006,-0.1072,-0.1119,-0.1142,-0.115,-0.113,-0.1251,-0.121,-0.1217,-0.1227,-0.1187,-0.1181,-0.1184,-0.1192,-0.1193,-0.1194,-0.1195,0,-0.052,-0.0477,-0.0439,-0.0423,-0.0454,-0.0469,-0.0532,-0.058,-0.0657,-0.082,-0.0811,-0.0956,-0.1064,-0.1071,-0.1051,-0.1054,-0.1059,-0.1045,-0.1061,-0.1072,-0.1024,-0.0951,-0.0876,0,0,0,0,0,-0.0457,-0.0403,-0.0375,-0.0334,-0.0372,-0.0404,-0.0466,-0.0538,-0.0652,-0.0649,-0.0731,-0.0768,-0.0845,-0.0896,-0.0873,-0.0979,-0.1042,-0.0948,-0.1027,-0.1138,-0.1149,-0.1108,0,0,0,0,0,0,-0.0413,-0.0362,-0.0336,-0.0279,-0.026,-0.0308,-0.0348,-0.0432,-0.0413,-0.054,-0.0561,-0.0722,-0.0768,-0.0845,-0.0859,-0.0878,-0.0911,-0.1033,-0.1031,-0.1131,-0.1142,-0.1151,-0.1112,0,0,0,0,0]},{"header":{"parameterUnit":"m.s-1","parameterCategory":2,"la1":30.2991,"la2":30.254,"lo1":-89.0895,"lo2":-89.0444,"dy":0.0017,"dx":0.0017,"nx":28,"ny":28,"refTime":"2023-11-02T09:00:00:Z","depth":"4","parameterNumber":3,"parameterNumberName":"V-component_of_CURRENTS"},"data":[0,0,0,0,0,0,0,0,0,0,0,0,0,0,0,0,0,0,0,0,0,0,0,0,0,0,0,0,0,0,0,0,0,0,0,0,0,0,0,0,0,0,0,0,0,0,0,0,0,0,0,0,0,0,0,0,0,0,0.0308,0.0309,0,0.0334,0.0334,0.0334,0.0358,0.0359,0.0359,0.0359,0.0392,0.0393,0.0394,0,0,0,0,0,0,0,0,0,0,0,0,0,0.0296,0.0296,0.0308,0.0309,0.0309,0.0334,0.0334,0.0335,0.0358,0.0359,0.0359,0.0359,0.0392,0.0393,0.0394,0,0,0,0,0,0,0,0,0,0,0,0,0,0.031,0.0296,0.0308,0.0323,0.0324,0.0333,0.0334,0.0335,0.0358,0.0359,0.0359,0.0359,0.0392,0.0393,0.0394,0.0395,0,0,0.0397,0.0398,0,0,0,0,0,0,0,0,0.031,0.0311,0.032,0.0322,0.0323,0.0342,0.0342,0.0355,0.0358,0.0347,0.0359,0.0359,0.0375,0.0378,0.0383,0.0396,0.0398,0.0397,0.0398,0.0398,0.0399,0,0,0,0,0,0,0,0.0309,0.031,0.032,0.0321,0.0322,0.0333,0.0335,0.0345,0.036,0.0348,0.0349,0.035,0.0376,0.0382,0.0384,0.0398,0.0397,0.0398,0.0399,0.0399,0.0403,0.0403,0,0,0,0,0,0,0.0302,0.0309,0.0319,0.032,0.0316,0.0333,0.0336,0.0337,0.036,0.0363,0.035,0.0351,0.038,0.0383,0.0386,0.0384,0.0398,0.0399,0.04,0.0404,0.0403,0.0402,0,0,0,0,0,0,0.0301,0.0302,0.0318,0.0314,0.0317,0.0333,0.0334,0.0337,0.0348,0.0361,0.0365,0.0358,0.0381,0.0384,0.0388,0.0385,0.04,0.0401,0.0404,0.0403,0.0403,0.0382,0,0,0,0,0,0,0.0301,0.0302,0.0306,0.0314,0.0317,0.0323,0.0334,0.0337,0.0347,0.0349,0.0369,0.0372,0.0381,0.0386,0.0389,0.0387,0.0402,0.0405,0.0404,0.0403,0.0384,0.0381,0.0379,0,0,0,0,0,0.03,0.0306,0.0306,0.0308,0.032,0.0322,0.0325,0.0338,0.0347,0.035,0.0358,0.0372,0.0382,0.0387,0.039,0.0388,0.0405,0.0404,0.0403,0.0385,0.0381,0.0379,0,0,0,0,0,0,0.0306,0.0309,0.031,0.0317,0.0317,0.0326,0.0335,0.0339,0.0349,0.0354,0.0366,0.037,0.0372,0.038,0.0385,0.0385,0.0396,0.0395,0.038,0.0377,0.0375,0.0362,0.0402,0,0,0,0,0,0.0306,0.0311,0.0311,0.0316,0.0318,0.0326,0.0331,0.0336,0.0342,0.0348,0.0358,0.0367,0.0369,0.0373,0.0379,0.038,0.0408,0.038,0.0378,0.0375,0.0366,0.0401,0.0401,0.0398,0.0398,0.0399,0,0,0.031,0.0312,0.0315,0.0317,0.0323,0.0313,0.0331,0.0337,0.0323,0.0349,0.0344,0.036,0.0367,0.0366,0.0368,0.0374,0.0395,0.0374,0.0372,0.0364,0.0399,0.04,0.04,0.0398,0.0398,0.0398,0,0,0.0313,0.032,0.0322,0.0317,0.0319,0.0316,0.0316,0.0322,0.0323,0.0317,0.033,0.034,0.0347,0.0349,0.035,0.0336,0.038,0.0344,0.0322,0.0356,0.0357,0.0358,0.0417,0.0423,0.0343,0.0343,0.0343,0,0.0316,0.031,0.0323,0.0315,0.0302,0.0313,0.0296,0.0296,0.03,0.0289,0.0311,0.0317,0.0334,0.0321,0.0321,0.033,0.0369,0.0336,0.0354,0.0355,0.0357,0.0417,0.0424,0.0342,0.0342,0.0342,0.0342,0,0.0312,0.0303,0.0304,0.0289,0.0279,0.0269,0.0258,0.0251,0.0254,0.0251,0.0247,0.0275,0.0281,0.0288,0.0304,0.0314,0.0347,0.0349,0.0365,0.0356,0.042,0.0428,0.034,0.0341,0.0341,0.0341,0,0,0.0318,0.0302,0.0299,0.0272,0.0258,0.0241,0.0218,0.0189,0.0162,0.0185,0.0169,0.0187,0.022,0.0224,0.0253,0.0282,0.0342,0.0324,0.0326,0.0387,0.0446,0.0382,0.0386,0.0357,0.0357,0.0358,0.0497,0,0.0304,0.0273,0.027,0.0221,0.0195,0.0182,0.0149,0.0126,0.0119,0.0111,0.0144,0.0154,0.019,0.0214,0.0245,0.0315,0.0358,0.0306,0.044,0.0444,0.0392,0.0389,0.0359,0.0503,0.0505,0.0506,0.0507,0,0.0293,0.0266,0.0224,0.0159,0.0147,0.0123,0.0058,0.0038,0.0027,0.0034,0.0057,0.0093,0.0148,0.0186,0.0301,0.0273,0.0359,0.0414,0.0421,0.0368,0.0393,0.0507,0.0522,0.052,0.0519,0.0518,0.0517,0,0.0273,0.0225,0.0183,0.0164,0.0106,0.0078,0.0052,0.0016,-0.0012,0.0012,0.0015,0.007,0.0127,0.022,0.033,0.0338,0.0454,0.0483,0.0505,0.0504,0.0533,0.0531,0.0565,0.0565,0.0564,0.0564,0.0563,0,0.0244,0.021,0.017,0.0143,0.0077,0.0055,0.0005,-0.0022,-0.0038,-0.0072,-0.0002,0.0001,0.0141,0.0213,0.0322,0.0424,0.0457,0.0498,0.0524,0.0525,0.0519,0.0541,0.0537,0.0569,0.0568,0.0567,0.0566,0,0.0229,0.021,0.0152,0.0089,0.0071,0.0029,-0.0016,-0.0056,-0.0057,-0.0088,-0.0069,-0.0019,0.0084,0.0194,0.0352,0.041,0.0515,0.0544,0.0542,0.0567,0.0562,0.0555,0.0614,0.0612,0.0611,0.061,0.0609,0,0.022,0.0194,0.0122,0.0092,0.0068,0.0023,-0.0014,-0.0051,-0.01,-0.0116,-0.0144,-0.0054,-0.0005,0.017,0.0297,0.0484,0.0498,0.0568,0.0558,0.0542,0.0562,0.0557,0.0551,0.0607,0.0607,0.0607,0.0606,0,0.0196,0.0179,0.013,0.0079,0.0033,-0.0026,-0.0086,-0.0135,-0.0186,-0.018,-0.02,-0.0113,-0.001,0.0142,0.0271,0.0402,0.0526,0.0557,0.0561,0.0553,0.0535,0.0555,0.0551,0.0602,0.0603,0.0603,0.0604,0,0.0185,0.0151,0.0109,0.0056,0.0006,-0.0073,-0.0108,-0.0172,-0.0219,-0.027,-0.0268,-0.0149,-0.0073,0.0099,0.0212,0.0328,0.0378,0.0423,0.0436,0.0442,0.0328,0.0276,0.028,0,0,0,0,0,0.0173,0.0145,0.0095,0.0022,-0.0026,-0.0044,-0.0161,-0.02,-0.0263,-0.0294,-0.0293,-0.0205,-0.0036,0.0046,0.0156,0.0211,0.0406,0.0342,0.0466,0.058,0.0584,0.047,0,0,0,0,0,0,0.0165,0.0128,0.0095,0.0021,-0.0009,-0.0078,-0.0143,-0.0201,-0.0236,-0.0271,-0.0181,-0.015,0.0021,-0.0064,0.0184,0.0217,0.0308,0.0425,0.0427,0.0577,0.0581,0.0585,0.0469,0,0,0,0,0]}]]